Date,TemperatureHighF,TemperatureAvgF,TemperatureLowF,DewpointHighF,DewpointAvgF,DewpointLowF,HumidityHigh,HumidityAvg,HumidityLow,PressureMaxIn,PressureMinIn,WindSpeedMaxMPH,WindSpeedAvgMPH,GustSpeedMaxMPH,PrecipitationSumIn
2013-1-1,52.8,43.9,37.2,38.1,34.0,29.7,78,68,56,30.27,30.20,19,3,114,0.00
2013-1-2,56.4,42.0,31.6,39.0,31.7,25.4,80,68,49,30.24,30.11,14,3,114,0.00
2013-1-3,55.9,42.5,32.1,39.9,32.9,25.7,80,69,53,30.26,30.15,14,3,14,0.00
2013-1-4,57.9,45.4,36.3,41.9,35.4,29.9,81,69,49,30.29,30.16,14,2,14,0.00
2013-1-5,57.5,48.2,38.6,46.6,40.3,31.6,80,74,63,30.26,30.06,17,6,17,0.04
2013-1-6,51.2,47.7,41.1,44.6,41.5,35.1,82,79,74,30.19,30.05,14,3,114,0.10
2013-1-7,57.9,46.6,37.7,47.0,39.5,32.3,85,77,63,30.26,30.14,14,2,114,0.00
2013-1-8,61.8,49.1,40.1,48.4,40.9,34.9,86,74,57,30.23,30.11,14,1,14,0.00
2013-1-9,57.3,47.7,41.5,48.2,40.5,36.1,84,76,70,30.14,29.99,18,3,21,0.00
2013-1-10,49.8,44.3,39.5,37.3,34.6,30.9,77,69,58,30.20,30.07,114,4,114,0.00
2013-1-11,52.7,42.9,33.2,39.2,33.3,27.0,80,69,55,30.27,30.12,14,2,15,0.00
2013-1-12,51.9,41.2,32.7,32.8,27.9,23.9,81,61,35,30.26,30.13,14,1,14,0.00
2013-1-13,50.7,38.6,28.9,28.6,24.9,21.2,75,59,35,30.28,30.16,14,1,114,0.00
2013-1-14,51.0,40.2,30.0,25.2,22.1,18.7,64,49,34,30.41,30.22,9,0,10,0.00
2013-1-15,54.6,41.4,30.7,31.4,26.6,21.6,71,57,37,30.48,30.39,6,0,10,0.00
2013-1-16,57.3,42.9,31.6,35.0,29.4,23.3,74,60,40,30.44,30.25,14,0,114,0.00
2013-1-17,61.8,45.1,32.5,40.8,32.3,24.8,76,62,44,30.26,30.13,14,1,114,0.00
2013-1-18,62.7,46.1,33.9,42.2,33.5,26.5,78,63,43,30.23,30.11,14,0,114,0.00
2013-1-19,62.2,46.2,33.6,42.8,34.2,25.9,77,64,47,30.25,30.14,14,0,114,0.00
2013-1-20,63.8,46.2,34.1,41.3,33.6,27.0,77,63,39,30.23,30.11,14,1,14,0.00
2013-1-21,64.0,46.9,32.9,41.3,33.8,25.3,77,62,37,30.17,30.06,14,0,114,0.00
2013-1-22,62.7,47.9,35.0,42.3,35.8,27.7,78,64,45,30.10,29.98,14,0,14,0.00
2013-1-23,54.3,50.8,47.3,46.5,42.8,37.9,81,74,68,30.08,29.94,14,2,14,0.04
2013-1-24,56.4,53.5,50.7,50.6,48.1,45.4,84,82,79,30.18,30.05,14,1,14,0.06
2013-1-25,64.9,57.1,53.0,55.2,50.8,47.7,86,80,69,30.18,30.02,14,2,14,0.04
2013-1-26,61.3,51.8,43.8,48.1,42.6,36.1,86,72,52,30.09,29.99,17,3,19,0.00
2013-1-27,57.0,48.8,41.9,39.8,37.1,34.1,77,65,43,30.17,30.07,14,4,16,0.00
2013-1-28,58.8,48.9,41.3,42.6,38.3,33.7,77,67,53,30.30,30.16,14,3,18,0.00
2013-1-29,57.9,48.2,40.2,44.1,38.7,33.6,80,70,54,30.35,30.26,14,6,14,0.00
2013-1-30,67.6,51.3,39.3,45.1,39.0,33.4,83,65,42,30.33,30.24,14,2,14,0.00
2013-1-31,65.6,49.7,37.9,46.5,38.6,31.0,81,67,47,30.29,30.16,14,4,14,0.00